This is the latest recevied weather packets stored in our database for station/object IZ3TCG-13. If no packets are shown the sender has not sent any weather packets the latest 10 day(s).
| Time | Temp. | Humidity | Pressure | Rain* | Wind** | Luminosity | Snow |
|---|---|---|---|---|---|---|---|
| 1777259283 | 14.44° C | 88% | 1014.2 hPa | 0 mm | - | - | - |
| 1777258084 | 14.44° C | 91% | 1014.1 hPa | 0 mm | - | - | - |
| 1777255923 | 15° C | 93% | 1013.9 hPa | 0 mm | - | - | - |
| 1777255203 | 15° C | 94% | 1014.1 hPa | 0 mm | - | - | - |
| 1777254963 | 15° C | 95% | 1013.9 hPa | 0 mm | - | - | - |
| 1777252804 | 15.56° C | 97% | 1013.8 hPa | 0 mm | - | - | - |
| 1777251736 | 15.56° C | 96% | 1013.6 hPa | 0 mm | - | - | - |
| 1777250403 | 16.11° C | 96% | 1013.6 hPa | 0 mm | - | - | - |
| 1777249684 | 16.11° C | 95% | 1013.9 hPa | 0 mm | - | - | - |
| 1777249444 | 16.11° C | 95% | 1013.8 hPa | 0 mm | - | - | - |
| 1777248484 | 16.11° C | 95% | 1014 hPa | 0 mm | - | - | - |
| 1777248244 | 16.67° C | 94% | 1013.6 hPa | 0 mm | - | - | - |
| 1777247764 | 16.67° C | 94% | 1013.9 hPa | 0 mm | - | - | - |
| 1777247044 | 16.67° C | 94% | 1013.6 hPa | 0 mm | - | - | - |
| 1777246324 | 16.67° C | 93% | 1013.7 hPa | 0 mm | - | - | - |
| 1777245125 | 16.67° C | 94% | 1013.9 hPa | 0 mm | - | - | - |
| 1777244404 | 16.67° C | 93% | 1013.7 hPa | 0 mm | - | - | - |
| 1777241764 | 16.67° C | 87% | 1013.9 hPa | 0 mm | - | - | - |
| 1777238643 | 16.67° C | 87% | 1013.4 hPa | 0 mm | - | - | - |
| 1777238403 | 16.67° C | 86% | 1013.6 hPa | 0 mm | - | - | - |
| 1777238164 | 16.67° C | 87% | 1013.7 hPa | 0 mm | - | - | - |
| 1777237924 | 16.67° C | 87% | 1013.5 hPa | 0 mm | - | - | - |
| 1777236724 | 16.67° C | 87% | 1013.5 hPa | 0 mm | - | - | - |
| 1777234084 | 18.33° C | 82% | 1013.2 hPa | 0 mm | - | - | - |
| 1777232884 | 18.33° C | 80% | 1013.3 hPa | 0 mm | - | - | - |
* Rain latest hour (hover to see other rain measurements)
** Current wind speed in m/s (hover to see current wind gust speed)